Regional Weather Roundup
Issued by NWS

Home | Current Version | Previous Version | Graphics & Text | Print | Product List | Glossary On
Versions: 1 2 3 4 5 6 7 8 9 10 11 12 13 14 15 16 17 18 19 20 21 22 23 24 25 26 27 28 29 30 31 32 33 34 35 36 37 38 39 40 41 42 43 44 45 46 47 48 49 50
000
ASUS43 KOAX 261802
RWRNE

WEATHER ROUNDUP FOR NEBRASKA
NATIONAL WEATHER SERVICE OMAHA NE
100 PM CDT MON JUN 26 2017

NOTES: SATELLITE DATA IS BEING USED TO AUGMENT CLOUD COVER ABOVE
       12000 FEET.
       "FAIR" INDICATES FEW OR NO CLOUDS BELOW 12,000 FEET WITH NO
       SIGNIFICANT WEATHER AND/OR OBSTRUCTIONS TO VISIBILITY.

  * THESE STATIONS DO NOT REPORT WEATHER SUCH AS RAIN...SNOW OR FOG.

NEZ001>004-019>022-054>056-261900-
NEBRASKA PANHANDLE

CITY           SKY/WX    TMP DP  RH WIND       PRES   REMARKS
SCOTTSBLUFF    SUNNY     78  44  29 NE7       30.21F
6HR MIN TEMP:  54; 6HR MAX TEMP:  78;

ALLIANCE       SUNNY     75  39  27 E13       30.21F
6HR MIN TEMP:  50; 6HR MAX TEMP:  75;

CHADRON        SUNNY     76  39  26 NE12      30.20F
6HR MIN TEMP:  41; 6HR MAX TEMP:  77;

GORDON         FAIR      72  38  29 SE12      30.23F
6HR MIN TEMP:  45; 6HR MAX TEMP:  72;

KIMBALL        SUNNY     76  48  37 N3        30.25S
SIDNEY         MOSUNNY   77  54  44 NE8G22    30.21F
6HR MIN TEMP:  53; 6HR MAX TEMP:  81;

$$

NEZ057>060-069>072-079>082-261900-
SOUTHWEST NEBRASKA

CITY           SKY/WX    TMP DP  RH WIND       PRES   REMARKS
NORTH PLATTE   MOSUNNY   73  60  63 NE8       30.19S
6HR MIN TEMP:  61; 6HR MAX TEMP:  73; 6HR PCP:  0.14;

IMPERIAL       SUNNY     81  56  42 VRB6      30.17F
6HR MIN TEMP:  50; 6HR MAX TEMP:  81;

LEXINGTON      PTSUNNY   72  59  64 E5        30.17F
MCCOOK         SUNNY     79  59  50 VRB7      30.15F
6HR MIN TEMP:  60; 6HR MAX TEMP:  79;

OGALLALA       SUNNY     79  55  43 NE10G18   30.19F
$$

NEZ005>010-023>029-035>040-094-261900-
NORTH CENTRAL NEBRASKA

CITY           SKY/WX    TMP DP  RH WIND       PRES   REMARKS
VALENTINE      SUNNY     76  37  24 E13G21    30.22S
6HR MIN TEMP:  54; 6HR MAX TEMP:  76;

AINSWORTH      SUNNY     73  43  33 NE14G20   30.22S
BROKEN BOW     MOSUNNY   77  48  35 NE13G24   30.18F
6HR MIN TEMP:  59; 6HR MAX TEMP:  77;

O`NEILL        SUNNY     70  45  40 NE10G21   30.22F
ORD            SUNNY     76  43  30 NE10G20   30.17S
6HR MIN TEMP:  57; 6HR MAX TEMP:  76;

THEDFORD       SUNNY     75  40  28 E14G20    30.22S
$$

NEZ041-046>049-061>064-073>077-083>087-261900-
SOUTH CENTRAL NEBRASKA

CITY           SKY/WX    TMP DP  RH WIND       PRES   REMARKS
GRAND ISLAND   PTSUNNY   74  60  61 NW14      30.17S
6HR MIN TEMP:  59; 6HR MAX TEMP:  75; 6HR PCP:  0.01;

AURORA         MOSUNNY   74  59  60 N8        30.15F
HASTINGS       MOSUNNY   75  60  59 VRB6      30.16F
6HR MIN TEMP:  59; 6HR MAX TEMP:  75; 6HR PCP: TRACE;

HEBRON         PTSUNNY   78  59  52 S7        30.15F
HOLDREGE       CLOUDY    71  60  68 N8        30.17S
KEARNEY *      CLOUDY    70  61  73 N9        30.19R
YORK           CLOUDY    72  61  68 N6        30.16S
$$

NEZ011>018-030>034-042>045-261900-
NORTHEAST NEBRASKA

CITY           SKY/WX    TMP DP  RH WIND       PRES   REMARKS
NORFOLK        SUNNY     71  48  43 E8G17     30.18F
6HR MIN TEMP:  56; 6HR MAX TEMP:  72;

ALBION         SUNNY     75  46  35 NE12G17   30.18S
BLAIR          PTSUNNY   71  56  60 NE8       30.16F
FREMONT        PTSUNNY   71  56  59 CALM      30.17S
TEKAMAH        MOSUNNY   73  53  49 N12       30.17F
6HR MIN TEMP:  56; 6HR MAX TEMP:  73;

WAYNE          PTSUNNY   71  50  47 NE8G16    30.19S
$$

NEZ050>053-065>068-078-088>093-261900-
SOUTHEAST NEBRASKA

CITY           SKY/WX    TMP DP  RH WIND       PRES   REMARKS
LINCOLN        LGT RAIN  69  60  73 S6        30.17F
6HR MIN TEMP:  59; 6HR MAX TEMP:  71; 6HR PCP:  0.16;

OMAHA EPPLEY   MOSUNNY   71  58  63 E5        30.16F
6HR MIN TEMP:  58; 6HR MAX TEMP:  71; 6HR PCP:  0.04;

BEATRICE       MOSUNNY   72  59  63 S7        30.17F
FALLS CITY     CLOUDY    63  59  87 S10       30.17F
6HR MIN TEMP:  57; 6HR MAX TEMP:  64; 6HR PCP:  0.20;

NEBRASKA CITY  MOSUNNY   67  60  78 S5        30.17F
PLATTSMOUTH    MOSUNNY   68  57  68 S3        30.17F
$$

NEZ044-045-051>053-067-261900-
OMAHA AREA

CITY           SKY/WX    TMP DP  RH WIND       PRES   REMARKS
OMAHA EPPLEY   MOSUNNY   71  58  63 E5        30.16F
6HR MIN TEMP:  58; 6HR MAX TEMP:  71; 6HR PCP:  0.04;

BLAIR          PTSUNNY   71  56  60 NE8       30.16F
FREMONT        PTSUNNY   71  56  59 CALM      30.17S
MILLARD        PTSUNNY   71  58  63 CALM      30.17F
OFFUTT AFB     MOSUNNY   69  58  66 SE5       30.16F
PLATTSMOUTH    MOSUNNY   68  57  68 S3        30.17F
WAHOO          FAIR      72  55  54 CALM      30.16F
$$



USA.gov is the U.S. government's official web portal to all federal, state and local government web resources and services.